EW7244 Weather Reports


time (UTC)temp
C
wind
direction
speed
KPH
gust
KPH
rain 1hr
cm
rain 24hr
cm
rain mn
cm
humidity
%
barometer
mb
20260502123052 20 107 0.0 6.4 0.00 0.00 0.00 39 1018.8
20260502121601 20 109 0.0 4.8 0.00 0.00 0.00 40 1019.0
20260502114550 19 217 0.0 0.0 0.00 0.00 0.00 43 1019.5
20260502113054 19 76 0.0 0.0 0.00 0.00 0.00 44 1019.7
20260502111552 18 69 0.0 0.0 0.00 0.00 0.00 43 1020.0
20260502110035 18 91 0.0 1.6 0.00 0.00 0.00 49 1020.2
20260502104521 18 98 0.0 0.0 0.00 0.00 0.00 44 1020.6
20260502103004 17 74 0.0 3.2 0.00 0.00 0.00 50 1020.8
20260502101554 17 90 0.0 0.0 0.00 0.00 0.00 50 1021.1
20260502070052 11 113 0.0 4.8 0.00 0.00 0.00 66 1023.6
20260502064557 10 92 0.0 0.0 0.00 0.00 0.00 70 1023.7
20260502063052 10 126 0.0 0.0 0.00 0.00 0.00 73 1023.8
20260502061545 10 128 0.0 0.0 0.00 0.00 0.00 71 1023.8
20260502060039 10 263 0.0 0.0 0.00 0.00 0.00 71 1023.9
20260502054535 10 271 0.0 0.0 0.00 0.00 0.00 73 1024.0
20260502053014 9 271 0.0 0.0 0.00 0.00 0.00 73 1024.0
20260502051514 8 271 0.0 0.0 0.00 0.00 0.00 76 1023.9
20260502050055 8 271 0.0 0.0 0.00 0.00 0.00 75 1023.9
20260502044552 7 271 0.0 0.0 0.00 0.00 0.00 78 1023.7
20260502043053 6 271 0.0 0.0 0.00 0.00 0.00 80 1023.8
20260502041545 6 271 0.0 0.0 0.00 0.00 0.00 79 1023.8
20260502040053 6 271 0.0 0.0 0.00 0.00 0.00 76 1023.6
20260502034553 6 271 0.0 0.0 0.00 0.00 0.00 77 1023.5
20260502033049 6 271 0.0 0.0 0.00 0.00 0.00 77 1023.6
20260502031544 6 271 0.0 0.0 0.00 0.00 0.00 76 1023.5
20260502030041 7 271 0.0 0.0 0.00 0.00 0.00 74 1023.6
20260502024557 7 271 0.0 0.0 0.00 0.00 0.00 73 1023.6
20260502023052 7 271 0.0 0.0 0.00 0.00 0.00 73 1023.6
20260502021549 7 271 0.0 0.0 0.00 0.00 0.00 71 1023.6
20260502020044 7 271 0.0 0.0 0.00 0.00 0.00 71 1023.5
20260502014601 7 271 0.0 0.0 0.00 0.00 0.00 71 1023.5
20260502013056 7 271 0.0 0.0 0.00 0.00 0.00 70 1023.5
20260502010043 7 272 0.0 0.0 0.00 0.00 0.00 70 1023.7
20260502004537 8 272 0.0 0.0 0.00 0.00 0.00 69 1023.6
20260502003020 8 271 0.0 1.6 0.00 0.00 0.00 68 1023.6
20260502001518 8 271 0.0 0.0 0.00 0.00 0.00 69 1023.7
20260502000113 8 271 0.0 0.0 0.00 0.00 0.00 69 1023.7
20260501234543 8 271 0.0 0.0 0.00 0.00 0.00 68 1023.6
20260501233101 8 271 0.0 0.0 0.00 0.00 0.00 67 1023.6
20260501231551 8 272 0.0 0.0 0.00 0.00 0.00 67 1023.6
20260501230043 9 273 0.0 0.0 0.00 0.00 0.00 67 1023.6
20260501224540 9 273 0.0 0.0 0.00 0.00 0.00 66 1023.6
20260501223055 9 273 0.0 0.0 0.00 0.00 0.00 66 1023.6
20260501221545 9 273 0.0 0.0 0.00 0.00 0.00 65 1023.3
20260501220047 9 273 0.0 0.0 0.00 0.00 0.00 66 1023.1
20260501214557 10 273 0.0 0.0 0.00 0.00 0.00 61 1023.1
20260501213054 10 279 0.0 0.0 0.00 0.00 0.00 62 1023.0
20260501211553 10 279 0.0 0.0 0.00 0.00 0.00 60 1022.9
20260501210045 10 313 0.0 0.0 0.00 0.00 0.00 61 1022.7
20260501204537 10 332 0.0 0.0 0.00 0.00 0.00 63 1022.6
20260501203057 10 287 0.0 0.0 0.00 0.00 0.00 62 1022.5
20260501201606 10 235 0.0 0.0 0.00 0.00 0.00 63 1022.3
20260501200043 11 236 0.0 0.0 0.00 0.00 0.00 62 1022.2
20260501194554 11 236 0.0 0.0 0.00 0.00 0.00 58 1022.0
20260501193041 11 236 0.0 0.0 0.00 0.00 0.00 59 1021.8
20260501191533 11 238 0.0 0.0 0.00 0.00 0.00 60 1021.6
20260501190018 11 237 0.0 0.0 0.00 0.00 0.00 58 1021.6
20260501184507 11 24 0.0 0.0 0.00 0.00 0.00 63 1021.3
20260501183058 11 265 0.0 0.0 0.00 0.00 0.00 59 1021.1
20260501181535 12 265 0.0 0.0 0.00 0.00 0.00 61 1020.9
20260501180047 12 265 0.0 0.0 0.00 0.00 0.00 58 1020.7
20260501174544 12 265 0.0 0.0 0.00 0.00 0.00 55 1020.5
20260501173055 13 266 0.0 0.0 0.00 0.00 0.00 57 1020.4
20260501171555 13 267 0.0 0.0 0.00 0.00 0.00 56 1020.4
20260501170053 13 195 0.0 0.0 0.00 0.00 0.00 57 1020.3
20260501164541 14 195 0.0 0.0 0.00 0.00 0.00 55 1020.3
20260501163056 15 192 0.0 0.0 0.00 0.00 0.00 51 1020.3
20260501161549 15 273 0.0 0.0 0.00 0.00 0.00 48 1020.4
20260501160046 16 150 0.0 0.0 0.00 0.00 0.00 41 1020.3
20260501154550 17 132 0.0 0.0 0.00 0.00 0.00 38 1020.3
20260501153053 18 157 0.0 0.0 0.00 0.00 0.00 40 1020.4
20260501151545 18 151 0.0 0.0 0.00 0.00 0.00 36 1020.5
20260501150044 18 301 0.0 0.0 0.00 0.00 0.00 45 1020.6
20260501144538 17 94 0.0 0.0 0.00 0.00 0.00 39 1020.7
20260501143052 17 97 0.0 1.6 0.00 0.00 0.00 38 1020.7
20260501141546 17 129 0.0 0.0 0.00 0.00 0.00 38 1020.7